www.pogodaiklimat.ru

Погода и климат >> Архив погоды >> Парагвай >> Пуэрто-Касадо


ПОГОДА в Пуэрто-Касадо

  • Прогноз погоды в Пуэрто-Касадо
  • Монитор погоды в Пуэрто-Касадо

АРХИВ ПОГОДЫ в Пуэрто-Касадо

Время (UTC), дата Ветер
(напр.,м/с)
 
Видим.   Явления Облачность Т
(С)
Тd
(С)
f
(%)
Тe
(С)
Тes
(С)
Комфортность P
(гПа)
Po
(гПа)
Тmin
(С)
Tmax
(С)
R
(мм)
R24
(мм)
S
(см)
12 12.01 штиль 0 20 км 9/0
[Ac As]
+25.0 +23.6 92 +34 +38 очень
душно
1013.9 1004.9 +22.8 18
15 12.01 штиль 0 20 км 9/4 900 м
[Cu med, cong Ac und]
+27.8 +23.9 79 +38 +45 очень
душно
1015.3 1006.4
18 12.01 штиль 0 20 км 6/5 1000 м
[Cu med, cong Ci]
+32.2 +23.3 59 +43 +53 опасность
перегрева
1011.1 1002.3
21 12.01 СВ 7 20 км гроза без осадков 9/6 1000 м
[Cb cap Cs]
+32.2 +23.2 59 +43 +43 опасность
перегрева
1011.4 1002.6
00 13.01 штиль 0 20 км в посл. час дождь {гроза} 9/0
[Ac As]
+24.8 +23.5 92 +33 +33 очень
душно
1011.1 1002.1 +33.4 10
03 13.01 штиль 0 20 км 9/0
[Ac As]
+24.0 +22.5 91 +31 +31 очень
душно
1011.4 1002.4
09 13.01 штиль 0 20 км 8/0
[Ac As]
+24.6 +20.7 79 +31 +31 очень
душно
1012.1 1003.1
12 13.01 штиль 0 20 км 6/0
[Ac As]
+26.4 +24.2 88 +37 +43 очень
душно
1012.9 1003.9 +23.0 10
15 13.01 С 2 20 км 9/5 1000 м
[Cu med, cong Ac und]
+30.2 +22.8 65 +40 +45 очень
душно
1013.1 1004.3
18 13.01 СЗ 3 20 км 6/4 1000 м
[Cu med, cong Ci]
+32.2 +23.2 59 +43 +50 опасность
перегрева
1011.8 1003.0
21 13.01 В 2 20 км 6/3 1000 м
[Cu med, cong Cs]
+33.6 +24.0 57 +45 +47 опасность
перегрева
1008.6 999.9
00 14.01 штиль 0 20 км 3/0
[Ci]
+30.8 +24.0 67 +42 +42 опасность
перегрева
1008.7 999.9 +34.0
03 14.01 штиль 0 20 км ясно +30.0 +24.2 71 +42 +42 опасность
перегрева
1009.5 1000.7
06 14.01 штиль 0 20 км ясно +28.4 +21.9 68 +37 +37 очень
душно
1009.1 1000.2
09 14.01 штиль 0 20 км 8/0
[Ac As]
+25.8 +23.2 86 +35 +35 очень
душно
1011.2 1002.2
12 14.01 СВ 2 20 км 3/0
[Ac trans]
+28.2 +23.7 77 +39 +45 очень
душно
1013.0 1004.1 +25.8
15 14.01 С 3 20 км 8/5 1000 м
[Cu med, cong Cs]
+32.4 +23.2 58 +43 +50 опасность
перегрева
1013.3 1004.5
18 14.01 С 2 20 км 8/6 1000 м
[Cu med, cong Cs]
+34.6 +22.2 49 +44 +50 опасность
перегрева
1012.0 1003.3
21 14.01 С 2 20 км 8/3 1000 м
[Cu med, cong Cs]
+33.4 +24.1 58 +45 +47 опасность
перегрева
1008.2 999.5
00 15.01 штиль 0 20 км 4/0
[Ci]
+30.2 +25.7 77 +45 +45 опасность
перегрева
1009.3 1000.5 +35.0
09 15.01 штиль 0 20 км ясно +26.0 +23.1 84 +35 +35 очень
душно
1011.4 1002.4
12 15.01 С 2 20 км ясно +29.4 +23.1 69 +39 +47 очень
душно
1012.3 1003.4 +24.0
15 15.01 С 3 20 км 4/0
[Ci]
+32.6 +22.9 57 +43 +59 опасность
перегрева
1012.0 1003.2
18 15.01 СВ 5 20 км 8/5 1000 м
[Cu med, cong Ci]
+36.0 +19.7 39 +42 +45 опасность
перегрева
1009.3 1000.6
21 15.01 С 3 20 км 5/1 1000 м
[Cu med, cong Ci]
+35.8 +19.7 39 +41 +43 опасность
перегрева
1008.5 999.9
00 16.01 штиль 0 20 км ясно +31.2 +22.3 59 +40 +40 очень
душно
1008.9 1000.1 +36.0
03 16.01 штиль 0 20 км ясно +30.0 +22.7 65 +40 +40 очень
душно
1009.3 1000.5
06 16.01 штиль 0 20 км ясно +28.8 +21.9 66 +37 +37 очень
душно
1010.0 1001.1
09 16.01 штиль 0 20 км ясно +26.4 +22.7 80 +35 +35 очень
душно
1011.2 1002.2
12 16.01 СВ 3 20 км ясно +28.4 +23.5 75 +39 +45 очень
душно
1013.3 1004.4 +26.0
15 16.01 СВ 5 20 км 1/1 1000 м
[Cu hum]
+33.4 +22.6 53 +43 +53 опасность
перегрева
1012.9 1004.1
18 16.01 С 3 20 км 6/6 1000 м
[Cu med, cong]
+36.6 +20.9 40 +43 +49 опасность
перегрева
1010.3 1001.6
21 16.01 С 2 20 км 5/5 1000 м
[Cu med, cong]
+36.8 +19.2 36 +42 +43 опасность
перегрева
1008.4 999.8
00 17.01 штиль 0 20 км 3/0
[Ci]
+33.2 +24.3 60 +46 +46 опасность
перегрева
1008.3 999.6 +37.4
03 17.01 штиль 0 20 км ясно +31.0 +24.0 66 +43 +43 опасность
перегрева
1009.1 1000.3
09 17.01 штиль 0 20 км ясно +27.2 +22.6 76 +36 +36 очень
душно
1009.4 1000.5
12 17.01 СВ 3 20 км ясно +30.0 +22.8 65 +40 +46 очень
душно
1012.3 1003.5 +26.8
15 17.01 С 5 20 км 1/0
[Ci]
+34.2 +23.7 54 +45 +56 опасность
перегрева
1012.2 1003.5
18 17.01 С 4 20 км 4/4 1000 м
[Cu hum]
+37.2 +22.3 42 +46 +52 опасность
перегрева
1010.1 1001.5
21 17.01 СВ 3 20 км 3/3 1000 м
[Cu hum]
+37.6 +20.8 38 +44 +46 опасность
перегрева
1006.0 997.4
00 18.01 штиль 0 20 км ясно +33.6 +24.1 58 +46 +46 опасность
перегрева
1007.3 998.6 +38.0
03 18.01 штиль 0 20 км ясно +33.6 +24.1 58 +46 +46 опасность
перегрева
1007.3 998.6 +38.0
06 18.01 СВ 2 15 км гроза, ливневой дождь 10/10 600 м
[Cb cap]
+30.0 +24.2 71 +42 +42 опасность
перегрева
1008.4 999.6 4
09 18.01 штиль 0 20 км зарница {гроза} 6/6 800 м
[Cb cap]
+28.0 +23.5 77 +38 +38 очень
душно
1010.8 1001.9
12 18.01 штиль 0 20 км 8/0
[Ac As]
+27.8 +23.6 78 +38 +43 очень
душно
1014.4 1005.5 +27.2 4
15 18.01 штиль 0 20 км 8/4 1000 м
[Cu hum Ac As]
+30.8 +24.1 68 +43 +52 опасность
перегрева
1015.4 1006.5
18 18.01 ЮВ 3 20 км 6/6 1000 м
[Cu med, cong]
+32.6 +24.5 62 +45 +51 опасность
перегрева
1013.2 1004.4
21 18.01 ЮВ 3 20 км 5/5 1000 м
[Cu hum]
+32.0 +23.2 60 +43 +43 опасность
перегрева
1011.3 1002.5
00 19.01 Ю 3 20 км зарница 5/5 800 м
[Cb cap]
+27.0 +21.1 70 +34 +34 очень
душно
1013.5 1004.6 +34.0
09 19.01 Ю 2 20 км 9/9 750 м
[Sc]
+22.2 +20.2 88 +28 +28 душно 1014.3 1005.2

 

Местоположение метеостанции Пуэрто-Касадо (Парагвай): широта -22.28 долгота -57.86 высота над уровнем моря 87 м.

В архиве по умолчанию представлена погода в Пуэрто-Касадо за последнюю неделю. Архивные данные за месяц целиком и за предыдущие месяцы, начиная с января 2011 года, Вы можете получить, выбрав интересующий диапазон дат из раскрывающегося списка и нажав кнопку "Ввод!".


*Определитесь, кто Вы:
робот инопланетянин человек

Внимание! Время в таблицах - всемирное. Для получения местного времени необходимо прибавить поправку, которая равна -4 ч.

Смотрите также архив погоды в соседних городах и на ближайших метеорологических станциях:

Погода в Порто Муртиньо (Мату-Гросу-ду-Сул, Бразилия) (72 км)
Погода в Консепсьоне (Парагвай) (138 км)
Погода в Посо Колорадо (Парагвай) (162 км)
Погода в Сан-Педро (Парагвай) (213 км)
Погода в Педро-Хуан-Кабальеро (Парагвай) (222 км)
Погода в Понта-Пора (Мату-Гросу-ду-Сул, Бразилия) (224 км)
Погода в Понта-Поране (Мату-Гросу-ду-Сул, Бразилия) (241 км)
Погода в Миранде (Мату-Гросу-ду-Сул, Бразилия) (256 км)
Погода в Амамбаи (Мату-Гросу-ду-Сул, Бразилия) (272 км)
Погода в Марискал-Эстигаре (Парагвай) (284 км)

Пояснения к столбцам:

Ветер - указаны скорость ветра в м/с - средняя за 10 мин, порывы в срок и между сроками (в фигурных скобках) и направление, откуда дует ветер: С - северный, СВ - северо-восточный, В - восточный, ЮВ - юго-восточный, Ю - южный, ЮЗ - юго-западный, З - западный, СЗ - северо-западный.
Видимость - горизонтальная дальность видимости в метрах или километрах. При видимости от 1 до 10 км при отсутствии осадков обычно наблюдается дымка, при ухудшении видимости до 1 км и менее - туман. В сухую погоду видимость может ухудшаться дымом, пылью или мглою.
Явления - указаны атмосферные явления, наблюдавшиеся в срок или в последний час перед сроком; фигурными скобками обозначены явления, наблюдавшиеся между сроками (за 1-3 часа до срока); квадратными скобками обозначены град или гололедные отложения с указанием их диаметра в мм.
Облачность - указаны через наклонную черту общая и нижняя облачность в баллах и высота нижней границы облаков в метрах; квадратными скобками обозначены формы облаков: Ci - перистые, Cs - перисто-слоистые, Cc - перисто-кучевые, Ac - высококучевые, As - высокослоистые, Sc - слоисто-кучевые, Ns - слоисто-дождевые, Cu - кучевые, Cb - кучево-дождевые. Подробнее классификацию облаков см. в Атласе облаков (PDF).
T - Температура воздуха - температура, измеренная на высоте 2 м над землей.
Td - Температура точки росы - температура, при понижении до которой содержащийся в воздухе водяной пар достигнет насыщения.
f - Относительная влажность воздуха - влажноcть воздуха, измеренная на высоте 2 м над землей.
Te - Эффективная температура - температура, которую ощущает одетый по сезону человек в тени. Характеристика душности погоды. При расчете учитывается влияние влажности воздуха и скорости ветра на теплоощущения человека.
Tes - Эффективная температура на солнце - температура, которую ощущает человек, с поправкой на солнечный нагрев. Характеристика знойности погоды. Зависит от высоты солнца над горизонтом, облачности и скорости ветра. Ночью, в пасмурную погоду, а также при ветре 12 м/с и более поправка равна нулю.
P - Атмосферное давление - приведенное к уровню моря атмосферное давление.
Po - Атмосферное давление - измеренное на уровне метеостанции атмосферное давление.
Tmin - Минимальная температура - минимум температуры воздуха на высоте 2 м над землей.
Tmax - Максимальная температура - максимум температуры воздуха на высоте 2 м над землей.
R - Количество осадков - Количество выпавших осадков за период времени, мм. При наведении курсора мыши на число - период времени, за который выпало указанное количество осадков.
R24 - Количество осадков - Количество выпавших осадков за 24 часа, мм.
S - Снежный покров - Высота снежного покрова, см. При наведении курсора мыши на число - состояние снежного покрова и степень покрытия местности в баллах.